Regional Weather Roundup
Issued by NWS

Home | Current Version | Previous Version | Text Only | Print | Product List | Glossary On
Versions: 1 2 3 4 5 6 7 8 9 10 11 12 13 14 15 16 17 18 19 20 21 22 23 24 25 26 27
000
ASUS46 KSEW 220110
RWRWA

WASHINGTON REGIONAL WEATHER ROUNDUP
NATIONAL WEATHER SERVICE SEATTLE WA
600 PM PDT MON AUG 21 2017

NOTE:"FAIR" INDICATES FEW OR NO CLOUDS BELOW 12,000 FEET WITH NO
SIGNIFICANT WEATHER AND/OR OBSTRUCTIONS TO VISIBILITY.

WAZ507-509-555>559-220200-
SEATTLE, TACOMA, EVERETT, AND VICINITY

CITY           SKY/WX    TMP DP  RH WIND       PRES   REMARKS
EVERETT        SUNNY     76  53  44 NW7       30.05F
BOEING FIELD   SUNNY     79  55  43 NW8       30.01F
RENTON         SUNNY     80  57  45 NW14      30.00F
SEATAC AIRPORT MOSUNNY   80  52  37 N16       30.03F
JBLM-MCCHORD   SUNNY     80  56  44 NE10      30.02F
PUYALLUP       FAIR      82  54  36 VRB6      30.02F
BREMERTON      SUNNY     80  52  37 NE10      30.02F
JBLM-FT LEWIS  SUNNY     81  57  43 N9        30.00F
TACOMA NARROWS SUNNY     77  52  41 N12       30.02F
$$

WAZ001-503-506-510-514-515-220200-
NORTH INTERIOR

CITY           SKY/WX    TMP DP  RH WIND       PRES   REMARKS
BELLINGHAM     SUNNY     77  56  48 W7        30.03F
FRIDAY HARBOR  SUNNY     77  52  41 N7        30.05F
EASTSOUND      SUNNY     72  55  56 N5        30.04F
PORT ANGELES   SUNNY     76  53  44 E5        30.06F
EDIZ HOOK      FAIR      61  53  75 W8        30.05F
PORT TOWNSEND  FAIR      77  52  41 NW7G14    30.04F
NAS WHIDBEY    MOSUNNY   64  52  64 NW6       30.08F
ARLINGTON      SUNNY     79  54  41 NW12      30.02F
BURLINGTON     SUNNY     77  52  41 W10G16    30.02F
$$

WAZ020-022-039-040-504-511-512-220200-
SOUTHWEST INTERIOR

CITY           SKY/WX    TMP DP  RH WIND       PRES   REMARKS
SHELTON        SUNNY     85  55  35 N8        29.98F
OLYMPIA        SUNNY     81  53  37 NE12      30.01F
CHEHALIS       FAIR      82  55  39 N9G15     29.99F
KELSO          SUNNY     86  54  33 N12       29.95F
VANCOUVER      SUNNY     89  56  32 NW12      29.90F
SCAPPOOSE, OR  SUNNY     88  52  29 NW13      29.91F
PORTLAND, OR   MOSUNNY   89  57  33 NW14      29.90F
$$

WAZ021-516-517-220200-
WASHINGTON COAST

CITY           SKY/WX    TMP DP  RH WIND       PRES   REMARKS
FORKS          SUNNY     74  57  55 NW12      30.03F
HOQUIAM        SUNNY     72  59  63 SW13      30.01F
ASTORIA, OR    SUNNY     71  55  56 NW14G24   29.97F
$$

WAZ019-023-024-040-567>569-220200-
CASCADE MOUNTAINS AND COLUMBIA GORGE

CITY           SKY/WX    TMP DP  RH WIND       PRES   REMARKS
STAMPEDE PASS  SUNNY     75  41  29 VRB3      30.16F
TROUTDALE, OR  SUNNY     92  57  30 VRB5      29.89F HX  90
HOOD RIVER, OR CLEAR     90  45  20 CALM      29.96S
THE DALLES, OR SUNNY     94  41  16 NE5       29.92F HX  90
$$

WAZ026-027-041>044-520-521-220200-
EAST SLOPES

CITY           SKY/WX    TMP DP  RH WIND       PRES   REMARKS
OMAK           MOSUNNY   89  40  17 SW7       30.02F
WENATCHEE      SUNNY     85  44  23 SE9       30.01F
ELLENSBURG     FAIR      89  38  16 SE8       30.04F
YAKIMA         SUNNY     88  50  27 S8        30.01F
SUNNYSIDE ARPT   N/A     82  58  43 CALM      30.00F
YAKIMA TC      FAIR      86  46  24 S8        30.00F
$$

WAZ028-034-035-220200-
COLUMBIA BASIN

CITY           SKY/WX    TMP DP  RH WIND       PRES   REMARKS
EPHRATA        SUNNY     87  38  17 SW7       30.02F
MOSES LAKE     SUNNY     87  42  20 SW5       30.02F
PASCO          MOSUNNY   89  51  27 NW7       29.96F
RICHLAND ARPT  CLEAR     92  44  19 W3        29.96F
HERMISTON, OR  SUNNY     90  45  21 N6        29.96F
$$

WAZ036>038-220200-
NORTHEAST WASHINGTON

CITY           SKY/WX    TMP DP  RH WIND       PRES   REMARKS
SPOKANE GEIGER PTSUNNY   84  39  20 CALM      30.08F
SPOKANE FELTS  SUNNY     86  41  20 N6        30.06F
FAIRCHILD AFB  SUNNY     83  39  20 W3        30.08F
COEURDALENE,ID MOSUNNY   83  45  26 W7        30.08F
DEER PARK      SUNNY     84  38  19 VRB6      30.08F
$$

WAZ029>033-220200-
SOUTHEAST WASHINGTON

CITY           SKY/WX    TMP DP  RH WIND       PRES   REMARKS
PULLMAN        SUNNY     85  40  20 N3        30.09F
LEWISTON, ID   SUNNY     90  39  16 E3        30.00F
WALLA WALLA    SUNNY     89  47  23 S12       29.98F
PENDLETON, OR  SUNNY     88  40  18 VRB3      30.00F
$$




USA.gov is the U.S. government's official web portal to all federal, state and local government web resources and services.